• En España
  • Lista de países
  • Para 7 días
  • Temperatura del agua
  • Mapa Satelital
  • El tiempo en el mapa
  • Informadores
  • user-avatar
    Iniciar sesión

    Tiempo cada hora Martynovo

    Hoy, 15 Agosto, Miércoles

    Tiempo Temperatura Precipitaciones Viento Presión Humedad
    00:00 +13°C° 0 mm 2 mps 744 mmHg 91%
    01:00 +13°C° 0 mm 2 mps 744 mmHg 92%
    02:00 +12°C° 0 mm 2 mps 744 mmHg 92%
    03:00 +12°C° 0 mm 2 mps 745 mmHg 92%
    04:00 +10°C° 0 mm 2 mps 745 mmHg 93%
    05:00 +12°C° 0 mm 2 mps 745 mmHg 90%
    06:00 +12°C° 0 mm 3 mps 746 mmHg 88%
    07:00 +13°C° 0 mm 3 mps 746 mmHg 86%
    08:00 +14°C° 0 mm 3 mps 746 mmHg 79%
    09:00 +17°C° 0 mm 3 mps 746 mmHg 71%
    10:00 +19°C° 0 mm 4 mps 746 mmHg 64%
    11:00 +20°C° 0 mm 4 mps 746 mmHg 60%
    12:00 +21°C° 0 mm 4 mps 747 mmHg 56%
    13:00 +22°C° 0 mm 4 mps 747 mmHg 53%
    14:00 +22°C° 0 mm 4 mps 747 mmHg 52%
    15:00 +22°C° 0 mm 4 mps 747 mmHg 51%
    16:00 +23°C° 0 mm 4 mps 747 mmHg 51%
    17:00 +22°C° 0 mm 3 mps 747 mmHg 57%
    18:00 +20°C° 0 mm 3 mps 747 mmHg 64%
    19:00 +19°C° 0 mm 2 mps 747 mmHg 70%
    20:00 +18°C° 0 mm 2 mps 747 mmHg 74%
    21:00 +16°C° 0 mm 2 mps 747 mmHg 79%
    22:00 +15°C° 0 mm 2 mps 747 mmHg 83%
    23:00 +15°C° 0 mm 2 mps 747 mmHg 84%

    Mañana, 16 Agosto, Jueves

    Tiempo Temperatura Precipitaciones Viento Presión Humedad
    00:00 +14°C° 0 mm 2 mps 747 mmHg 85%
    01:00 +14°C° 0 mm 2 mps 747 mmHg 86%
    02:00 +14°C° 0 mm 2 mps 747 mmHg 86%
    03:00 +13°C° 0 mm 2 mps 746 mmHg 86%
    04:00 +13°C° 0 mm 2 mps 746 mmHg 86%
    05:00 +13°C° 0 mm 3 mps 746 mmHg 83%
    06:00 +14°C° 0 mm 4 mps 745 mmHg 80%
    07:00 +15°C° 0 mm 5 mps 745 mmHg 77%
    08:00 +16°C° 0,1 mm 5 mps 744 mmHg 77%
    09:00 +17°C° 0,1 mm 6 mps 744 mmHg 77%
    10:00 +19°C° 0,1 mm 6 mps 744 mmHg 77%
    11:00 +20°C° 0,1 mm 6 mps 743 mmHg 74%
    12:00 +22°C° 0,1 mm 6 mps 743 mmHg 71%
    13:00 +23°C° 0,1 mm 6 mps 743 mmHg 68%
    14:00 +23°C° 0,7 mm 6 mps 743 mmHg 72%
    15:00 +23°C° 0,7 mm 5 mps 743 mmHg 76%
    16:00 +22°C° 0,7 mm 5 mps 743 mmHg 80%
    17:00 +22°C° 0,5 mm 4 mps 743 mmHg 84%
    18:00 +21°C° 0,5 mm 4 mps 743 mmHg 87%
    19:00 +20°C° 0,5 mm 3 mps 743 mmHg 91%
    20:00 +19°C° 0 mm 3 mps 743 mmHg 93%
    21:00 +18°C° 0 mm 3 mps 744 mmHg 95%
    22:00 +16°C° 0 mm 2 mps 744 mmHg 97%
    23:00 +15°C° 0 mm 2 mps 744 mmHg 97%

    Pasado mañana, 17 Agosto, Viernes

    Tiempo Temperatura Precipitaciones Viento Presión Humedad
    00:00 +14°C° 0 mm 2 mps 745 mmHg 97%
    01:00 +13°C° 0 mm 2 mps 745 mmHg 97%
    02:00 +13°C° 0 mm 2 mps 745 mmHg 97%
    03:00 +12°C° 0 mm 2 mps 745 mmHg 97%
    04:00 +12°C° 0 mm 2 mps 746 mmHg 97%
    05:00 +12°C° 0 mm 2 mps 746 mmHg 95%
    06:00 +13°C° 0 mm 2 mps 746 mmHg 93%
    07:00 +13°C° 0 mm 2 mps 747 mmHg 91%
    08:00 +15°C° 0 mm 2 mps 747 mmHg 86%
    09:00 +16°C° 0 mm 2 mps 747 mmHg 80%
    10:00 +18°C° 0 mm 3 mps 747 mmHg 75%
    11:00 +19°C° 0 mm 3 mps 747 mmHg 67%
    12:00 +20°C° 0 mm 3 mps 747 mmHg 59%
    13:00 +21°C° 0 mm 3 mps 747 mmHg 52%
    14:00 +21°C° 0,1 mm 3 mps 747 mmHg 53%
    15:00 +21°C° 0,1 mm 3 mps 747 mmHg 54%
    16:00 +21°C° 0,1 mm 4 mps 747 mmHg 55%
    17:00 +20°C° 0,1 mm 3 mps 747 mmHg 61%
    18:00 +19°C° 0,1 mm 3 mps 748 mmHg 67%
    19:00 +17°C° 0,1 mm 2 mps 748 mmHg 74%
    20:00 +16°C° 0,1 mm 2 mps 748 mmHg 77%
    21:00 +15°C° 0,1 mm 2 mps 748 mmHg 81%
    22:00 +13°C° 0,1 mm 2 mps 749 mmHg 84%
    23:00 +12°C° 0 mm 2 mps 749 mmHg 86%

    18 Agosto, Sábado

    Tiempo Temperatura Precipitaciones Viento Presión Humedad
    00:00 +12°C° 0 mm 2 mps 749 mmHg 87%
    01:00 +10°C° 0 mm 2 mps 749 mmHg 89%
    02:00 +10°C° 0 mm 2 mps 749 mmHg 90%
    03:00 +9°C° 0 mm 2 mps 749 mmHg 91%
    04:00 +9°C° 0 mm 2 mps 750 mmHg 91%
    05:00 +9°C° 0 mm 3 mps 750 mmHg 87%
    06:00 +10°C° 0 mm 3 mps 750 mmHg 83%
    07:00 +10°C° 0 mm 4 mps 751 mmHg 79%
    08:00 +12°C° 0 mm 4 mps 751 mmHg 73%
    09:00 +13°C° 0 mm 4 mps 751 mmHg 67%
    10:00 +14°C° 0 mm 5 mps 751 mmHg 61%
    11:00 +15°C° 0 mm 5 mps 751 mmHg 58%
    12:00 +16°C° 0 mm 5 mps 751 mmHg 55%
    13:00 +16°C° 0 mm 5 mps 751 mmHg 53%
    14:00 +16°C° 0 mm 5 mps 751 mmHg 53%
    15:00 +17°C° 0 mm 4 mps 751 mmHg 54%
    16:00 +17°C° 0 mm 4 mps 751 mmHg 54%
    17:00 +15°C° 0 mm 4 mps 751 mmHg 59%
    18:00 +14°C° 0 mm 3 mps 751 mmHg 63%
    19:00 +13°C° 0 mm 3 mps 751 mmHg 67%
    20:00 +12°C° 0 mm 3 mps 751 mmHg 71%
    21:00 +12°C° 0 mm 2 mps 751 mmHg 75%
    22:00 +9°C° 0 mm 2 mps 752 mmHg 79%
    23:00 +9°C° 0 mm 2 mps 752 mmHg 80%

    19 Agosto, Domingo

    Tiempo Temperatura Precipitaciones Viento Presión Humedad
    00:00 +9°C° 0 mm 2 mps 752 mmHg 81%
    01:00 +8°C° 0 mm 3 mps 752 mmHg 82%
    02:00 +8°C° 0 mm 3 mps 752 mmHg 83%
    03:00 +8°C° 0 mm 3 mps 752 mmHg 84%
    04:00 +7°C° 0 mm 3 mps 752 mmHg 86%
    05:00 +8°C° 0 mm 3 mps 752 mmHg 83%
    06:00 +9°C° 0 mm 3 mps 753 mmHg 80%
    07:00 +9°C° 0 mm 3 mps 753 mmHg 77%
    08:00 +11°C° 0 mm 3 mps 753 mmHg 70%
    09:00 +13°C° 0 mm 4 mps 753 mmHg 63%
    10:00 +15°C° 0 mm 4 mps 753 mmHg 57%
    11:00 +17°C° 0 mm 4 mps 752 mmHg 54%
    12:00 +18°C° 0 mm 3 mps 752 mmHg 52%
    13:00 +19°C° 0 mm 3 mps 752 mmHg 49%
    14:00 +19°C° 0 mm 3 mps 752 mmHg 49%
    15:00 +19°C° 0 mm 3 mps 752 mmHg 48%
    16:00 +19°C° 0 mm 3 mps 752 mmHg 48%
    17:00 +18°C° 0 mm 2 mps 751 mmHg 54%
    18:00 +17°C° 0 mm 2 mps 751 mmHg 60%
    19:00 +16°C° 0 mm 1 mps 751 mmHg 66%
    20:00 +14°C° 0 mm 1 mps 751 mmHg 70%
    21:00 +13°C° 0 mm 1 mps 751 mmHg 73%
    22:00 +10°C° 0 mm 0 mps 751 mmHg 77%
    23:00 +10°C° 0 mm 0 mps 751 mmHg 77%

    20 Agosto, Lunes

    Tiempo Temperatura Precipitaciones Viento Presión Humedad
    00:00 +11°C° 0 mm 1 mps 751 mmHg 78%
    01:00 +10°C° 0 mm 1 mps 751 mmHg 79%
    02:00 +10°C° 0 mm 1 mps 751 mmHg 80%
    03:00 +10°C° 0 mm 1 mps 751 mmHg 82%
    04:00 +9°C° 0 mm 1 mps 751 mmHg 83%
    05:00 +9°C° 0 mm 0 mps 751 mmHg 80%
    06:00 +10°C° 0 mm 0 mps 751 mmHg 76%
    07:00 +11°C° 0 mm 0 mps 751 mmHg 73%
    08:00 +13°C° 0 mm 0 mps 751 mmHg 67%
    09:00 +18°C° 0 mm 1 mps 751 mmHg 61%
    10:00 +20°C° 0 mm 1 mps 751 mmHg 55%
    11:00 +21°C° 0 mm 1 mps 751 mmHg 52%
    12:00 +22°C° 0 mm 1 mps 750 mmHg 49%
    13:00 +23°C° 0 mm 1 mps 750 mmHg 46%
    14:00 +23°C° 0 mm 1 mps 750 mmHg 45%
    15:00 +23°C° 0 mm 1 mps 750 mmHg 45%
    16:00 +23°C° 0 mm 1 mps 749 mmHg 44%
    17:00 +22°C° 0 mm 1 mps 749 mmHg 51%
    18:00 +21°C° 0 mm 1 mps 749 mmHg 57%
    19:00 +19°C° 0 mm 1 mps 749 mmHg 63%
    20:00 +18°C° 0 mm 1 mps 749 mmHg 66%
    21:00 +16°C° 0 mm 1 mps 749 mmHg 69%
    22:00 +15°C° 0 mm 1 mps 748 mmHg 73%
    23:00 +14°C° 0 mm 1 mps 748 mmHg 75%
    Mostrar más